Location: Bellflower
(33.8817°N, 118.1170°W)
Time: 12:50:13
(UTC+00:00)

USA 234 - Pass Details

Date: 23 November 2020
Orbit: 1098 x 1110 km, 123.0° (Epoch: 17 January)

Event Time Altitude Azimuth Distance (km) Brightness Sun altitude
Rises 12:11:08 0° 46° (NE) 3,935 6.7 -29.1°
Reaches altitude 10° 12:13:40 10° 49° (NE) 2,974 6.0 -28.6°
Maximum altitude 12:20:10 62° 130° (SE) 1,229 3.6 -27.2°
Enters shadow 12:26:00 13° 209° (SSW) 2,725 5.1 -26.0°
